This is the latest recevied weather packets stored in our database for station/object KC4GS-13. If no packets are shown the sender has not sent any weather packets the latest 10 day(s).
| Time | Temp. | Humidity | Pressure | Rain* | Wind** | Luminosity | Snow |
|---|---|---|---|---|---|---|---|
| 1777743550 | 15.56° C | 98% | 1013.3 hPa | 0 mm | - | 235 W/m² | - |
| 1777743247 | 15.56° C | 98% | 1013.4 hPa | 0 mm | - | 281 W/m² | - |
| 1777742946 | 15.56° C | 98% | 1013.2 hPa | 0 mm | - | 228 W/m² | - |
| 1777742642 | 15.56° C | 98% | 1013.3 hPa | 0 mm | - | 179 W/m² | - |
| 1777742338 | 15.56° C | 98% | 1013.3 hPa | 0 mm | - | 127 W/m² | - |
| 1777742034 | 15.56° C | 98% | 1013.4 hPa | 0 mm | - | 139 W/m² | - |
| 1777741732 | 15.56° C | 99% | 1013.6 hPa | 0 mm | - | 206 W/m² | - |
| 1777741428 | 15° C | 99% | 1013.5 hPa | 0 mm | - | 285 W/m² | - |
| 1777741124 | 15° C | 98% | 1013.4 hPa | 0 mm | - | 107 W/m² | - |
| 1777740821 | 15° C | 98% | 1013.5 hPa | 0 mm | - | 88 W/m² | - |
| 1777740518 | 15° C | 98% | 1013.6 hPa | 0 mm | - | 131 W/m² | - |
| 1777740215 | 15.56° C | 98% | 1013.5 hPa | 0 mm | - | 151 W/m² | - |
| 1777739911 | 15.56° C | 99% | 1013.5 hPa | 0 mm | - | 226 W/m² | - |
| 1777739608 | 15° C | 99% | 1013.4 hPa | 0 mm | - | 188 W/m² | - |
| 1777739306 | 15° C | 98% | 1013.5 hPa | 0 mm | - | 117 W/m² | - |
| 1777739002 | 15° C | 99% | 1013.6 hPa | 0 mm | - | 131 W/m² | - |
| 1777738699 | 15° C | 98% | 1013.3 hPa | 0 mm | - | 134 W/m² | - |
| 1777738395 | 15° C | 99% | 1013.5 hPa | 0 mm | - | 154 W/m² | - |
| 1777738093 | 15.56° C | 98% | 1013.4 hPa | 0 mm | - | 136 W/m² | - |
| 1777737792 | 15° C | 98% | 1013.5 hPa | 0 mm | - | 158 W/m² | - |
| 1777737490 | 15° C | 98% | 1013.4 hPa | 1.78 mm | - | 187 W/m² | - |
| 1777737188 | 15° C | 98% | 1013.4 hPa | 1.78 mm | - | 187 W/m² | - |
| 1777736883 | 15.56° C | 98% | 1013.3 hPa | 1.78 mm | - | 186 W/m² | - |
| 1777736270 | 15° C | 98% | 1013.6 hPa | 0 mm | - | 140 W/m² | - |
| 1777735967 | 15° C | 98% | 1013.7 hPa | 1.27 mm | - | 82 W/m² | - |
* Rain latest hour (hover to see other rain measurements)
** Current wind speed in m/s (hover to see current wind gust speed)